Weather Roundup
Issued by NWS

Home | Current Version | Previous Version | Graphics & Text | Print | Product List | Glossary Off
Versions: 1 2 3 4 5 6 7 8 9 10 11 12 13 14 15 16 17 18 19 20 21 22 23 24 25 26 27 28 29 30 31 32 33 34 35 36 37 38 39 40 41 42 43 44 45 46 47 48 49 50

000
NZUS93 KARX 201059
HRRWXR

CURRENT HOURLY OBSERVATIONS ACROSS
MUCH OF THE UPPER MISSISSIPPI VALLEY
NATIONAL WEATHER SERVICE LA CROSSE WI
600 AM CDT SAT SEP 20 2014


...SOUTHEAST MINNESOTA...


CITY           SKY/WX    TMP DP  RH WIND       PRES   REMARKS
ROCHESTER      CLOUDY    64  61  90 SW15G21   29.78S
ROCHESTER/MAYO FAIR      65  61  86 SW15G24   29.76S
WINONA         CLOUDY    68  64  88 W7        29.74S
AUSTIN         CLOUDY    63  61  94 SW10      29.73R
ALBERT LEA     CLOUDY    64  63  94 SW9       29.79R
DODGE CENTER   CLOUDY    64  63  94 SW12      29.77S
PRESTON        CLOUDY    63  63 100 SW12      29.78S
OWATONNA       CLOUDY    64  61  88 SW8       29.76F
FARIBAULT      CLOUDY    68  61  77 SW8       29.76S
$$

...ELSEWHERE IN MINNESOTA...


CITY           SKY/WX    TMP DP  RH WIND       PRES   REMARKS
MINNEAPOLIS    CLOUDY    67  64  90 SW10      29.72R
INTNL FALLS    CLOUDY    56  55  97 NW8       29.66R FOG
DULUTH         MOCLDY    63  59  87 NW16G22   29.62R
RED WING       CLOUDY    70  64  83 W6        29.71R
REDWOOD FALLS  MOCLDY    62  56  80 NW12      29.79R
MANKATO        CLOUDY    66  61  82 SW8       29.77R
WORTHINGTON    CLOUDY    64  57  77 NW8       29.85R
FAIRMONT       CLOUDY    64  57  77 SW6       29.80S
$$

...SOUTHWEST WISCONSIN...


CITY           SKY/WX    TMP DP  RH WIND       PRES   REMARKS
LA CROSSE      CLOUDY    66  62  87 SE7       29.74S
PRAIRIE DU CHI LGT RAIN  64  63  95 S15G28    29.71F
BOSCOBEL       CLOUDY    67  63  87 NW14      29.76F
LONE ROCK      NOT AVBL
PLATTEVILLE    CLOUDY    63  62  94 S12       29.85F
FORT MC COY    CLOUDY    64  61  90 CALM      29.76R
VIROQUA        FAIR      63  63 100 SW3       29.78S
WIS DELLS      LGT RAIN  64  60  90 CALM      29.76F
$$

...ELSEWHERE IN WISCONSIN...


CITY           SKY/WX    TMP DP  RH WIND       PRES   REMARKS
MILWAUKEE      CLOUDY    64  56  75 SW13      29.83F
MADISON        CLOUDY    66  61  84 S10       29.80F
GREEN BAY      LGT RAIN  64  62  93 W10       29.73F
EAU CLAIRE     NOT AVBL
BLACK RVR FLS  FAIR      64  64 100 SW5       29.73R
MEDFORD        CLOUDY    64  62  95 SW12      29.70F
WAUSAU         CLOUDY    64  62  93 S10       29.69F
WIS RAPIDS     CLOUDY    64  62  93 S5        29.74F
MARSHFIELD     CLOUDY    64  62  93 SW7       29.72F
RICE LAKE      MOCLDY    67  64  89 SW9       29.69R
$$

...NORTHEAST IOWA...


CITY           SKY/WX    TMP DP  RH WIND       PRES   REMARKS
WATERLOO       CLOUDY    67  63  87 SW9       29.81F
DUBUQUE        CLOUDY    62  61  96 S13       29.86F FOG
DECORAH        CLOUDY    64  63  94 W8G14     29.80R
MASON CITY     CLOUDY    65  63  93 SW16      29.82S
CHARLES CITY   CLOUDY    64  61  88 SW9G16    29.83S
OELWEIN        LGT RAIN  64  63  94 S26G37    29.80F
$$

...ELSEWHERE IN IOWA...


CITY           SKY/WX    TMP DP  RH WIND       PRES   REMARKS
DES MOINES     LGT RAIN  69  65  86 S10       29.90F
IOWA CITY      CLOUDY    65  63  93 CALM      29.93R
FORT DODGE     CLOUDY    64  63  94 S8        29.83S
MARSHALLTOWN   CLOUDY    67  63  87 SW7G18    29.83F
CEDAR RAPIDS   RAIN      65  65 100 SW6       29.89S FOG
$$

...NORTHERN ILLINOIS...


CITY           SKY/WX    TMP DP  RH WIND       PRES   REMARKS
CHICAGO-OHARE  CLOUDY    64  53  67 SW12      29.93R
DUPAGE         CLOUDY    60  53  77 S7        29.94R
CHICAGO-MIDWAY CLOUDY    64  54  69 SW15      29.93F
MOLINE         CLOUDY    64  59  83 SW7       29.91F
ROCKFORD       CLOUDY    64  57  78 SW10      29.93F
STERLING       CLOUDY    63  57  82 W3        29.92S
PEORIA         MOCLDY    60  55  83 S6        29.96R
$$

NOTE: "FAIR" INDICATES FEW OR NO CLOUDS BELOW 12,000 FEET WITH NO
SIGNIFICANT WEATHER AND/OR OBSTRUCTIONS TO VISIBILITY. WIND
SPEEDS ARE IN MILES-PER-HOUR.



USA.gov is the U.S. government's official web portal to all federal, state and local government web resources and services.